Flag for Central African Republic Weather past 2 weeks in Bimbo, Central African Republic

Now
90 °F

Passing clouds.


Feels Like: 98 °F
Forecast: 73 / 93 °F
Wind: 5 mph from Southwest

Location: Bangui Airport

Current Time: May 29, 2015 at 4:10:05 PM

Latest Report: May 29, 2015 at 3:00 PM


Visibility: N/A

Pressure: 29.77 "Hg

Humidity: 59%

Dew point: 73 °F

Location of BimboLocation

Historic Weather in Bimbo — Graph

°F

Bimbo temperature yesterday

Maximum temperature yesterday: 90 °F (at 10:00 AM)
Minimum temperature yesterday: 72 °F (at 1:00 PM)
Average temperature yesterday: 76 °F

Past Weeks' High & Low Weather Summary

 TemperatureHumidityPressure
High93 °F (May 17, 12:00 PM)100% (May 15, 11:00 PM)30.01 "Hg (May 15, 11:00 PM)
Low70 °F (May 29, 2:00 AM)53% (May 20, 2:00 PM)29.74 "Hg (May 28, 4:00 PM)
Average80 °F84%29.88 "Hg
* Reported May 15 11:00 PM — May 29 3:00 PM, Bimbo, Weather by CustomWeather, © 2015

Note: Actual official high and low records may vary slightly from our data, if they occured in-between our weather recording intervals... More about our weather records

Advertising

Bimbo weather history for previous 24 hours

 ConditionsComfort  
Time TempWeatherWind HumidityBarometerVisibility
3:00 PM
Fri, May 29
90 °FPassing clouds.5 mph59%29.77 "HgN/A
2:00 PM90 °FPassing clouds.8 mph59%29.77 "HgN/A
1:00 PM90 °FPassing clouds.3 mph59%29.80 "HgN/A
12:00 PM88 °FPassing clouds.1 mph62%29.83 "HgN/A
11:00 AM82 °FPassing clouds.2 mph74%29.86 "HgN/A
10:00 AM79 °FPartly sunny.2 mph89%29.89 "HgN/A
9:00 AM73 °FLow clouds.1 mph100%29.89 "HgN/A
8:00 AM72 °FFog.2 mph100%29.89 "Hg0 mi
7:00 AM70 °FFog.No wind100%29.86 "Hg1 mi
3:00 AM70 °FFog.No wind100%29.83 "Hg1 mi
2:00 AM70 °FFog.2 mph100%29.83 "HgN/A
1:00 AM72 °FFog.1 mph100%29.83 "Hg1 mi
12:00 AM72 °FFog.2 mph100%29.83 "Hg2 mi
11:00 PM
Thu, May 28
72 °FPassing clouds.No wind100%29.86 "Hg4 mi
10:00 PM72 °FPassing clouds.2 mph100%29.89 "HgN/A
9:00 PM73 °FPassing clouds.1 mph94%29.86 "HgN/A
8:00 PM73 °FPassing clouds.1 mph94%29.86 "HgN/A
7:00 PM73 °FPassing clouds.2 mph94%29.83 "HgN/A
6:00 PM75 °FPassing clouds.1 mph94%29.80 "HgN/A
5:00 PM77 °FBroken clouds.2 mph89%29.77 "HgN/A
4:00 PM77 °FScattered clouds.5 mph89%29.74 "HgN/A
Weather by CustomWeather, © 2015

See weather overviewHow to use our weather pages